Dewpoint
54 54 53 54 55 54 54 54 54 54 54 55 55 55 56 56 57 57 57 57 58 59 59 59 60 60 60 61 61 62 60 56 55 50 47 46 58 65 67 68 67 67 64 42 37 29 21 22 22 20 26 31 35 35 39 40 38 41 33 26 21 23 15 16 23 23 23 21 20 22 23 20 20 23 23 22 21 26 29 30 32 33 33 33 34 37 40 43
52 53 53 52 53 54 54 54 54 54 54 54 54 55 55 56 56 56 57 58 58 59 59 59 60 60 60 61 61 61 58 56 51 40 41 63 67 68 68 67 66 66 59 38 31 25 21 20 21 19 22 22 39 30 37 37 38 28 27 19 15 21 16 17 22 21 21 20 20 22 20 20 21 21 22 18 18 23 25 29 31 31 33 34 35 38 40 42
51 52 51 52 52 54 53 54 54 54 54 54 54 55 55 55 56 56 57 57 58 58 59 60 60 60 61 61 61 60 57 57 47 41 46 66 67 67 67 66 64 63 44 36 36 29 25 22 22 20 26 20 26 28 33 32 32 27 26 22 19 23 17 21 22 22 23 21 20 20 22 19 21 21 25 19 18 21 24 28 30 30 32 34 36 38 40 42
51 51 52 52 53 54 53 53 54 53 53 54 54 54 55 55 56 56 57 57 58 58 59 59 60 60 60 60 61 58 57 45 35 38 57 64 67 67 65 63 63 57 53 46 41 29 28 26 24 22 28 23 23 30 24 28 25 28 25 22 21 16 17 19 23 24 23 21 21 21 21 19 24 22 20 20 17 26 27 29 27 30 32 34 36 38 40 42
52 52 52 52 53 53 52 53 54 54 54 54 54 54 54 55 56 56 57 57 58 58 59 59 60 60 60 61 60 55 49 23 30 48 54 65 67 66 64 64 62 54 43 39 32 29 28 26 23 27 25 16 26 21 17 26 27 26 17 20 17 19 19 24 24 25 23 21 20 21 18 20 24 23 21 20 18 22 27 30 31 31 32 34 36 38 40 41
52 54 53 52 53 54 53 53 53 54 54 54 54 54 54 55 55 56 56 57 57 58 58 59 60 60 60 60 55 56 41 19 30 47 64 63 67 64 65 64 62 51 40 33 29 28 27 25 21 24 21 13 18 16 17 21 23 19 21 19 22 19 19 22 26 26 22 22 21 20 22 23 22 21 22 24 21 27 32 31 32 32 33 35 37 38 40 41
53 54 53 53 53 53 53 53 53 53 53 54 54 54 54 55 55 56 56 57 57 58 58 59 59 60 60 59 55 49 38 28 50 53 61 64 65 63 62 62 57 41 36 30 28 28 30 25 22 23 21 18 17 20 22 23 26 21 17 22 23 23 24 26 26 26 23 22 23 22 25 23 22 21 24 29 31 30 31 31 32 33 34 36 37 38 39 40
53 54 54 54 53 52 52 53 53 53 53 53 53 54 54 55 55 55 56 57 57 57 58 59 59 59 59 54 49 39 41 31 43 57 61 64 63 57 58 48 43 43 33 31 29 28 29 25 22 24 19 18 21 22 24 23 24 25 23 24 26 24 24 26 26 23 24 24 23 26 24 22 22 22 23 30 31 31 31 32 32 33 34 35 36 38 39 40
55 54 53 54 54 54 53 53 53 53 53 54 54 54 54 55 55 55 56 56 57 58 58 59 59 59 58 54 45 25 18 46 54 55 59 58 55 43 48 39 38 34 34 32 31 34 30 27 28 25 19 21 23 22 24 22 22 25 23 25 25 24 24 25 26 25 24 25 25 23 23 24 23 24 21 29 30 31 32 32 32 33 33 34 36 37 38 39
54 54 53 53 54 54 54 55 55 54 54 54 54 53 54 54 55 55 56 56 57 58 58 59 59 58 54 52 39 11 31 49 53 54 54 51 40 41 39 43 37 35 33 33 31 31 31 29 30 33 28 23 24 22 26 24 22 24 25 25 24 23 24 25 23 24 24 25 24 23 24 23 23 23 20 30 30 32 31 31 32 32 33 34 35 37 38 40
53 53 53 54 54 54 55 55 56 55 53 54 54 54 54 54 55 55 56 57 57 58 58 59 59 56 51 45 32 22 48 53 52 47 46 47 39 37 42 39 37 40 35 36 34 32 32 34 36 35 29 22 24 23 23 24 25 25 24 24 23 23 24 24 23 22 23 23 24 23 23 24 21 26 20 29 31 31 31 31 31 32 33 35 36 37 39 40
53 53 53 54 55 55 55 55 56 56 55 54 54 54 54 54 55 55 56 57 57 58 58 58 58 54 52 39 33 28 48 50 52 45 46 43 46 46 44 38 39 43 36 35 43 44 38 37 33 23 20 28 22 25 24 25 25 25 24 23 23 24 23 24 22 22 23 23 24 23 22 21 22 19 25 30 31 31 31 30 31 32 33 35 36 37 38 39
54 53 53 54 54 55 56 57 57 57 56 55 55 55 55 54 55 55 56 57 58 58 58 58 58 56 47 31 37 42 43 49 47 46 45 46 43 40 40 44 40 36 38 37 38 39 42 35 29 25 29 24 24 23 27 27 25 25 25 23 23 25 24 24 24 24 23 23 23 22 19 21 21 22 29 30 30 30 30 30 31 32 33 34 35 36 37 38
55 54 54 54 55 55 56 57 58 57 55 56 56 55 55 54 55 55 56 57 58 58 58 59 55 52 43 37 42 44 48 53 46 45 45 45 41 43 42 42 42 37 44 37 38 39 39 33 34 29 32 25 25 33 25 25 25 23 24 24 23 23 24 25 24 23 22 24 21 21 21 20 22 26 29 29 29 29 29 29 31 32 33 33 36 37 37 38
56 56 55 55 55 57 58 58 57 56 56 56 55 56 55 55 55 56 57 57 58 58 59 57 54 50 33 29 47 49 61 51 43 44 45 41 42 43 40 41 36 35 33 37 37 36 33 37 32 24 24 28 29 25 24 25 24 24 23 24 30 22 27 25 24 23 21 21 22 20 23 20 20 24 27 29 29 29 28 29 30 31 32 33 35 36 36 37
56 56 56 56 56 56 57 58 58 57 57 56 56 55 56 55 56 57 57 57 58 58 55 54 56 44 34 33 43 58 51 42 42 45 43 47 46 42 41 38 36 33 32 30 34 32 32 32 26 27 26 26 25 25 26 27 29 26 24 28 26 25 27 21 22 23 23 20 22 19 20 21 20 26 25 27 29 29 28 29 30 31 32 33 34 35 36 37
56 56 56 56 56 55 57 58 58 57 57 57 56 56 56 55 56 57 58 58 57 57 53 50 46 43 27 36 47 44 43 45 49 46 44 44 43 40 36 38 33 33 33 32 36 34 32 29 32 30 30 25 25 29 25 26 26 28 27 24 29 24 24 22 23 23 27 20 19 20 20 19 20 26 25 26 29 28 27 28 30 30 32 33 33 35 36 36
56 56 57 57 56 55 56 58 58 58 58 57 57 55 54 55 57 57 57 57 55 55 55 55 48 33 33 35 27 32 46 45 47 46 46 42 40 35 34 32 33 32 33 31 32 30 31 29 29 29 30 28 26 27 25 22 26 27 27 24 24 26 24 24 22 21 21 22 19 19 19 19 19 25 26 26 28 28 27 28 29 30 31 32 32 34 36 36
57 57 57 57 56 56 57 57 58 58 57 57 57 57 56 57 55 54 54 53 45 33 26 36 34 16 17 27 37 45 47 48 47 44 41 41 43 38 37 34 34 30 31 30 30 30 32 35 34 28 27 27 25 25 25 26 29 28 30 28 29 26 25 22 23 24 22 21 21 20 19 19 19 22 27 27 27 27 27 27 29 30 30 31 32 33 35 35
57 57 57 57 57 57 57 57 57 57 58 56 53 53 51 48 44 45 47 49 46 29 26 32 35 34 37 38 42 43 48 44 39 43 45 45 37 35 34 33 38 32 30 30 33 30 34 29 27 27 27 27 26 26 26 26 28 27 28 28 25 26 25 25 23 22 23 22 20 20 20 20 21 21 25 27 27 27 26 26 29 29 30 31 31 33 35 35
57 57 57 56 57 57 57 57 57 58 58 55 52 50 46 46 26 24 45 46 46 44 42 39 36 32 31 40 45 41 36 37 39 42 41 43 35 33 32 31 32 31 31 34 32 32 30 28 29 29 28 27 27 26 26 26 26 25 26 26 24 28 23 25 24 23 25 22 23 23 22 22 22 23 24 26 26 26 26 26 28 29 30 31 32 33 35 36
57 57 57 57 56 56 56 57 57 58 58 53 51 50 50 48 47 44 42 36 41 45 44 42 40 37 39 41 42 42 39 35 40 42 42 38 33 31 31 30 30 28 33 33 32 29 29 28 28 30 30 29 28 27 26 25 25 27 25 25 25 25 28 26 23 24 25 25 22 24 23 23 24 24 25 25 26 26 26 26 27 29 30 31 32 34 36 36
57 57 57 57 57 57 57 57 58 58 54 51 49 50 49 50 51 49 48 42 42 45 44 43 40 39 37 39 40 39 33 33 35 40 38 40 33 32 31 29 29 29 32 30 29 29 28 30 29 30 31 30 29 28 27 28 29 27 26 24 24 28 24 23 26 26 24 24 24 26 25 25 26 27 27 26 25 26 32 28 32 30 30 31 32 34 36 35
57 57 57 57 57 57 58 58 58 57 53 52 50 49 51 51 52 52 46 37 35 38 42 43 41 39 37 35 38 36 32 32 36 38 41 35 31 34 30 29 29 30 29 29 29 29 27 30 31 30 31 29 28 27 26 25 24 29 29 27 27 28 26 23 23 26 26 26 28 25 26 26 27 26 27 28 31 30 32 32 32 32 32 33 35 36 36 35
56 57 57 57 57 57 58 58 55 52 53 52 51 52 52 52 53 53 45 37 36 38 44 44 44 43 38 43 41 34 34 33 32 38 40 34 32 31 30 31 29 29 29 29 28 30 29 30 33 30 31 29 30 26 27 29 25 26 31 27 26 27 25 27 32 28 28 28 30 28 25 26 30 28 27 29 30 29 30 30 30 32 33 33 33 34 36 36
56 56 57 56 57 57 58 54 53 53 52 51 51 52 53 52 52 51 43 35 31 36 38 37 43 37 41 36 39 36 33 31 34 40 39 36 34 31 31 29 29 28 28 29 27 29 28 30 31 31 31 32 31 28 30 29 26 25 26 31 27 26 27 28 30 28 25 23 28 29 25 25 29 28 29 29 28 28 29 30 31 31 32 32 33 34 35 35
56 56 56 56 57 58 54 50 53 52 50 50 52 53 53 52 54 52 31 30 23 35 33 42 38 39 44 37 35 34 28 31 38 39 37 41 32 36 29 29 29 29 29 29 28 27 29 28 30 32 31 31 30 27 31 28 27 25 31 37 32 29 28 29 30 28 27 30 32 28 29 26 26 28 29 29 28 28 28 29 30 31 31 32 32 33 34 34
56 56 56 56 56 57 53 53 52 51 50 50 52 53 54 54 52 50 34 20 19 37 36 38 40 43 40 36 36 32 32 35 33 36 36 38 36 33 31 29 28 28 28 29 25 34 28 29 31 31 30 30 28 30 33 31 27 28 34 36 33 30 32 32 30 29 28 28 29 26 29 26 26 28 30 29 28 28 28 28 29 30 31 31 32 33 34 33
56 56 56 56 56 57 56 54 52 51 52 51 53 54 54 51 49 38 29 19 37 36 42 36 45 40 36 36 33 34 33 34 31 35 40 37 38 33 30 30 29 28 28 28 26 32 34 31 31 32 30 28 31 34 36 31 27 33 35 35 35 34 33 32 28 29 28 27 26 27 29 25 26 30 28 28 28 28 28 28 28 29 30 31 31 32 33 32
56 56 56 56 57 56 55 55 54 54 52 53 53 54 50 46 40 33 27 22 38 32 38 39 38 35 34 32 32 33 32 33 34 35 35 34 35 34 32 35 30 29 30 29 30 35 36 33 35 33 30 31 33 33 34 35 30 37 35 32 31 30 28 27 28 27 26 24 27 28 29 27 25 27 28 27 28 28 28 27 28 29 30 30 31 32 32 32
56 56 56 56 54 55 55 52 53 53 54 53 52 51 48 45 35 30 27 29 35 37 36 36 36 36 33 32 31 32 33 33 34 34 33 34 32 32 32 30 34 31 29 29 29 32 32 33 32 33 34 33 33 32 33 35 35 34 31 29 30 29 26 26 25 26 22 25 26 29 29 28 25 25 27 28 27 27 28 28 27 28 29 30 30 31 32 32
56 56 56 56 56 56 52 50 54 54 53 53 52 48 44 36 38 31 30 34 32 34 34 33 36 34 33 34 33 31 31 33 33 33 32 32 32 30 30 28 30 27 26 27 27 30 28 30 34 33 37 32 32 31 30 32 33 33 30 29 27 23 23 19 21 20 22 24 23 27 29 26 27 27 28 29 27 27 28 28 28 28 28 29 30 31 32 32
56 56 56 56 55 55 55 55 55 54 53 53 50 48 40 34 29 36 35 34 32 36 34 37 36 34 33 33 32 33 34 31 33 33 34 33 32 32 33 31 32 29 25 27 27 27 28 31 33 33 32 35 33 28 28 27 29 30 28 28 26 21 20 18 16 18 20 24 26 25 26 27 28 28 29 29 30 28 29 30 30 29 28 29 30 31 32 32
56 56 56 56 56 56 55 55 54 54 53 52 48 44 39 32 31 38 37 35 35 37 37 37 36 36 34 32 34 33 31 35 32 32 33 32 32 30 31 32 32 31 33 28 26 28 23 26 30 32 28 35 32 30 30 30 31 31 30 29 28 27 20 18 20 21 22 22 22 24 24 23 23 27 27 27 28 29 30 30 30 30 29 29 30 31 31 31
56 56 56 56 56 56 56 55 54 54 53 50 44 39 31 30 34 35 36 37 37 37 36 38 36 35 34 34 36 33 34 32 33 33 33 32 30 31 30 30 32 32 33 27 28 26 27 27 32 33 33 34 32 34 34 31 29 30 31 31 27 28 28 25 22 19 18 18 17 19 25 25 26 28 28 28 28 28 29 29 29 29 29 30 30 30 30 30
56 56 57 55 54 56 56 55 54 53 51 46 40 34 32 35 32 37 35 38 37 35 36 37 36 34 33 33 35 33 37 33 33 33 32 32 32 31 32 32 31 31 30 27 30 27 28 28 33 34 34 33 32 34 34 33 27 29 30 28 29 32 30 25 23 23 20 19 24 19 24 25 27 26 27 27 27 28 28 28 28 28 29 29 29 30 30 30
54 55 52 54 54 56 56 55 54 53 50 44 38 32 37 36 42 38 40 36 36 36 36 33 34 33 33 33 33 34 35 35 33 32 30 33 31 33 33 34 34 32 32 30 32 34 29 30 32 31 31 32 32 34 35 34 33 30 27 29 31 33 32 28 24 20 20 22 23 24 23 23 22 24 26 26 26 26 27 27 28 28 28 28 29 29 30 30
54 53 53 52 54 56 56 55 54 52 48 42 35 36 39 37 40 38 39 38 37 38 35 33 33 36 34 33 34 34 36 33 32 32 30 33 30 35 33 34 34 32 32 34 29 33 34 28 30 32 32 32 33 34 33 33 34 30 30 34 29 26 25 27 28 25 23 23 21 21 23 24 24 25 24 25 25 25 26 27 27 28 28 28 29 29 30 30
53 52 48 52 56 56 55 55 53 50 45 38 35 34 39 39 41 40 42 37 39 37 34 34 34 36 36 34 35 35 36 32 34 32 30 32 30 35 33 34 35 33 32 33 31 34 34 29 29 31 31 32 31 32 29 29 31 32 32 31 32 29 25 26 28 23 24 20 18 20 19 23 26 25 25 25 25 25 26 27 27 27 28 28 29 29 29 29
51 48 47 54 56 56 55 54 50 47 43 35 35 36 41 37 39 42 40 41 39 36 35 35 36 35 36 36 36 35 36 36 33 32 33 34 32 36 34 35 35 35 32 33 33 35 32 31 28 29 31 31 28 29 30 31 30 27 28 29 28 26 28 29 26 26 24 18 18 20 20 24 27 27 26 25 25 26 26 27 28 28 28 28 29 29 29 29
52 48 48 55 55 56 54 51 45 41 40 40 39 37 38 37 40 40 41 42 43 46 39 36 35 33 35 35 36 37 36 35 34 33 33 34 32 30 36 35 37 35 35 34 34 36 32 31 29 29 29 28 29 32 32 32 32 30 29 29 30 28 26 25 25 27 24 22 22 18 23 25 28 28 27 26 26 26 27 28 28 28 28 28 29 29 29 29
48 42 46 55 55 54 50 42 42 44 41 35 35 38 37 41 42 40 39 40 42 43 44 41 40 36 35 34 35 37 36 35 35 34 34 32 35 33 37 40 36 37 34 32 32 36 34 32 32 29 29 30 30 33 35 34 33 33 31 29 32 30 29 27 25 24 24 28 24 22 19 25 28 29 29 28 28 27 27 28 28 28 28 28 29 29 30 29
46 44 52 55 55 53 47 42 43 42 40 39 42 40 41 40 39 41 39 39 38 41 43 41 40 38 38 37 38 37 37 34 35 34 34 34 34 35 39 40 41 38 36 33 35 34 36 32 31 31 30 31 32 34 34 33 32 31 31 30 30 29 30 28 28 28 27 25 25 22 21 25 26 28 28 28 28 29 27 28 28 29 29 29 29 30 30 29
46 45 47 54 55 52 45 37 37 39 39 40 40 39 41 41 40 41 40 39 38 40 41 41 41 41 39 40 38 36 38 33 36 35 33 36 33 39 38 39 40 36 35 34 33 36 33 32 32 30 28 26 28 30 30 31 30 29 29 31 31 31 30 30 30 29 25 28 27 25 23 21 23 26 28 27 27 28 28 28 29 29 29 29 29 30 30 29
44 44 46 49 53 51 43 43 40 38 37 36 38 37 39 39 41 41 41 40 41 41 41 40 41 41 39 41 39 40 40 36 33 35 37 36 35 39 36 38 39 36 37 38 39 39 34 34 33 30 28 26 25 24 26 28 29 29 28 29 31 31 30 29 28 28 26 27 28 25 25 26 27 25 27 27 26 27 28 29 29 29 29 29 30 30 30 30
43 37 43 44 48 47 47 47 44 40 37 36 35 37 39 38 40 41 43 42 44 43 43 42 42 42 40 39 38 38 38 39 36 34 36 35 36 36 38 38 38 39 39 39 39 37 32 33 35 34 31 29 29 28 30 31 28 27 28 30 30 31 31 31 30 27 27 26 27 28 28 26 25 26 25 25 24 27 27 29 29 29 29 29 30 30 30 30
43 38 39 36 43 43 42 44 43 41 38 39 34 37 36 37 38 40 43 39 43 43 42 42 41 39 39 39 38 38 39 38 39 37 35 33 35 35 38 36 39 39 38 36 38 35 33 32 35 34 34 33 31 29 31 31 29 29 29 29 31 31 31 31 29 28 30 27 26 29 28 28 27 26 26 26 26 26 27 28 30 30 30 29 30 30 32 30
38 39 40 42 37 35 37 38 42 41 40 39 37 38 36 36 37 37 41 41 41 43 41 41 42 41 40 39 38 36 37 37 37 36 38 34 34 35 34 37 31 36 37 35 38 36 33 32 34 34 33 34 33 33 33 32 31 30 30 30 30 31 31 30 30 30 30 28 27 28 28 28 28 26 27 26 26 26 26 29 30 31 30 30 30 30 29 29
40 38 39 42 38 37 39 39 41 42 40 39 38 38 36 36 36 38 39 39 39 40 42 37 39 41 41 40 39 36 36 34 34 37 35 35 35 33 33 34 36 37 36 35 36 35 34 33 34 34 33 34 34 34 33 32 30 30 30 31 30 30 30 31 30 30 30 30 30 29 29 29 29 28 27 27 27 27 26 28 31 30 30 30 29 29 29 29
36 37 35 39 38 36 38 39 41 41 39 40 36 37 37 36 36 37 39 39 36 38 42 39 38 40 41 40 40 37 37 37 36 34 36 36 34 34 35 36 33 34 35 34 35 35 37 33 35 33 33 33 34 33 32 31 31 31 30 30 30 30 30 31 30 30 31 30 30 30 29 29 32 32 28 29 29 30 28 27 29 30 30 30 29 29 29 29
40 38 40 36 36 34 36 38 39 39 37 36 36 37 38 37 36 37 37 40 38 37 39 39 39 38 38 40 40 40 40 39 38 37 37 37 35 37 36 34 37 33 34 34 34 34 35 33 33 33 31 31 33 33 33 32 31 31 31 31 31 30 29 30 30 30 30 30 30 30 29 29 31 32 31 30 29 28 27 27 28 30 30 30 29 29 29 29
41 40 40 39 35 38 36 34 36 37 35 37 36 36 37 38 39 38 37 40 40 39 39 39 39 39 38 39 39 41 41 41 40 40 40 40 40 39 39 38 39 37 34 34 34 34 34 33 32 33 30 30 31 32 32 32 32 31 31 32 32 31 30 30 30 31 31 31 30 29 29 30 32 34 30 30 28 28 28 28 28 29 30 30 30 29 29 29